Location: ??????????
(54.4061°N, 22.6114°E)
Time: 07:18:38
(UTC+00:00)

STARLINK-63 - Pass Details

Date: 23 October 2019
Orbit: 548 x 551 km, 53.0° (Epoch: 13 November)

Event Time Altitude Azimuth Distance (km) Brightness Sun altitude
Rises 17:09:27 0° 277° (W) 2,720 8.9 -17.4°
Reaches altitude 10° 17:11:42 10° 274° (W) 1,826 7.6 -17.7°
Maximum altitude 17:15:48 62° 194° (SSW) 621 3.8 -18.3°
Enters shadow 17:17:06 39° 131° (SE) 829 4.1 -18.5°
